TimePDT,TemperatureF,Dew PointF,Humidity,Sea Level PressureIn,VisibilityMPH,Wind Direction,Wind SpeedMPH,Gust SpeedMPH,PrecipitationIn,Events,Conditions,WindDirDegrees,DateUTC
12:53 AM,53.1,46.9,80,29.95,10.0,Calm,Calm,-,N/A,,Clear,0,2012-10-24 07:53:00
1:53 AM,53.1,48.0,83,29.96,10.0,Calm,Calm,-,N/A,,Clear,0,2012-10-24 08:53:00
2:53 AM,51.1,46.9,86,29.95,10.0,East,5.8,-,N/A,,Clear,100,2012-10-24 09:53:00
3:53 AM,53.1,46.9,80,29.95,10.0,Calm,Calm,-,N/A,,Clear,0,2012-10-24 10:53:00
4:53 AM,51.1,46.0,83,29.96,10.0,Calm,Calm,-,N/A,,Clear,0,2012-10-24 11:53:00
5:53 AM,51.1,46.0,83,29.97,10.0,Calm,Calm,-,N/A,,Clear,0,2012-10-24 12:53:00
7:53 AM,52.0,46.9,83,30.01,10.0,Calm,Calm,-,N/A,,Partly Cloudy,0,2012-10-24 14:53:00
8:53 AM,57.0,46.9,69,30.02,10.0,SE,3.5,-,N/A,,Partly Cloudy,130,2012-10-24 15:53:00
9:53 AM,60.1,46.9,62,30.02,10.0,Calm,Calm,-,N/A,,Partly Cloudy,0,2012-10-24 16:53:00
10:53 AM,63.0,46.0,54,30.01,10.0,South,5.8,-,N/A,,Partly Cloudy,190,2012-10-24 17:53:00
11:53 AM,66.9,43.0,42,30.01,10.0,WSW,4.6,-,N/A,,Partly Cloudy,250,2012-10-24 18:53:00
12:53 PM,71.1,39.9,32,29.99,10.0,West,9.2,-,N/A,,Clear,260,2012-10-24 19:53:00
1:53 PM,70.0,43.0,38,29.97,10.0,WNW,5.8,-,N/A,,Clear,300,2012-10-24 20:53:00
2:53 PM,72.0,44.1,37,29.96,10.0,West,8.1,-,N/A,,Clear,270,2012-10-24 21:53:00
3:53 PM,73.0,42.1,33,29.95,10.0,West,6.9,-,N/A,,Clear,280,2012-10-24 22:53:00
4:53 PM,71.1,43.0,36,29.96,10.0,West,10.4,-,N/A,,Clear,270,2012-10-24 23:53:00
5:53 PM,68.0,43.0,40,29.97,10.0,West,9.2,-,N/A,,Clear,260,2012-10-25 00:53:00
6:53 PM,64.9,44.1,47,29.99,10.0,West,8.1,-,N/A,,Clear,260,2012-10-25 01:53:00
7:53 PM,63.0,44.1,50,30.00,10.0,Calm,Calm,-,N/A,,Clear,0,2012-10-25 02:53:00
8:53 PM,61.0,44.1,54,30.02,10.0,Calm,Calm,-,N/A,,Clear,0,2012-10-25 03:53:00